Regional Weather Roundup
Issued by NWS

Home | Current Version | Previous Version | Graphics & Text | Print | Product List | Glossary On
Versions: 1 2 3 4 5 6 7 8 9 10 11 12 13 14 15 16 17 18 19 20 21 22 23 24 25 26 27 28 29 30 31 32 33 34 35 36 37 38 39 40 41 42 43 44 45 46 47 48 49 50
000
ASUS43 KLSX 201607
RWRMO

WEATHER SUMMARY FOR MISSOURI
NATIONAL WEATHER SERVICE SPRINGFIELD MO
1000 AM CST SAT JAN 20 2018

NOTE: "FAIR" INDICATES FEW OR NO CLOUDS BELOW 12,000 FEET WITH NO
       SIGNIFICANT WEATHER AND/OR OBSTRUCTIONS TO VISIBILITY.
       CURRENT SKY AND/OR WEATHER CONDITIONS ARE NOT AVAILABLE FOR
       CHILLICOTHE AND FARMINGTON.

MOZ001>031-035>038-043-044-053-054-201700-
...NORTHERN AND WESTERN MISSOURI...

CITY           SKY/WX    TMP DP  RH WIND       PRES   REMARKS
KANSAS CTY INT CLOUDY    49  43  80 S12       29.90R
KANSAS C DTWN  CLOUDY    50  42  74 S10       29.91R
LEE`S SUMMIT   CLOUDY    49  44  83 S14       29.91S
ST JOSEPH      CLOUDY    46  44  93 S5        29.90R
CHILLICOTHE      N/A     47  41  80 S6        29.94R
KIRKSVILLE     CLOUDY    45  42  89 SW9       29.94R

$$
MOZ066>068-077>081-088>096-101>105-201700-
...SOUTHWEST MISSOURI...

CITY           SKY/WX    TMP DP  RH WIND       PRES   REMARKS
SPRINGFIELD    CLOUDY    50  43  77 S13       29.97R
JOPLIN         CLOUDY    52  48  86 S14G21    29.96R
BRANSON        PTSUNNY   54  46  76 S12       30.02R

$$
MOZ032>034-039>042-045>050-055>058-069>072-201700-
...CENTRAL MISSOURI...

CITY           SKY/WX    TMP DP  RH WIND       PRES   REMARKS
COLUMBIA       CLOUDY    43  39  86 SE7       29.98R
JEFFERSON CITY CLOUDY    39  36  89 SE6       30.00R
ROLLA          CLOUDY    47  40  76 S13       30.01R
SEDALIA        CLOUDY    51  47  86 SW16      29.96R
WHITEMAN AFB   CLOUDY    48  43  82 S9        29.90R
WARRENSBURG    CLOUDY    46  43  87 S3        29.94R
OSAGE BEACH    CLOUDY    45  39  79 S6        30.00R

$$
MOZ051-052-059>065-201700-
...EAST CENTRAL MISSOURI...

CITY           SKY/WX    TMP DP  RH WIND       PRES   REMARKS
ST LOUIS INTL  PTSUNNY   48  37  65 SW13      30.04R
SPIRIT OF STL  CLOUDY    50  40  68 SW16G25   30.01R
ST CHARLES     CLOUDY    43  34  70 S3        30.04R

$$
MOZ072>076-082>087-097>100-106>115-201700-
...SOUTH CENTRAL AND SOUTHEAST MISSOURI...

CITY           SKY/WX    TMP DP  RH WIND       PRES   REMARKS
CAPE GIRARDEAU CLOUDY    40  31  70 S8        30.14R
FARMINGTON     FAIR      45  30  55 S15       30.07R
POPLAR BLUFF   CLOUDY    43  34  70 S6        30.14R
WEST PLAINS    CLOUDY    45  34  65 S7        30.07R

$$



USA.gov is the U.S. government's official web portal to all federal, state and local government web resources and services.